When you browse on this site, cookies collect data to enhance your experience and personalize the content and advertising you see.
Visit our Privacy Policy to learn more. By continuing to use the site, you agree to this use of cookies and data.
  • în România
  • Lista ţărilor
  • Pe 7 zile
  • Temperatura apei
  • Meteo pe hartă
  • Widget-uri
  • user-avatar
    Intrare

    Meteo pe oră la Nyiregyhaza

    Astăzi, 25 Februarie, Marţi

    Timp Temperatura Precipitaţii Vânt Presiune Umiditate
    00:00 +3°C° 0 mm 4 m/s 752 mmHg 76%
    01:00 +3°C° 0 mm 4 m/s 752 mmHg 75%
    02:00 +2°C° 0 mm 5 m/s 751 mmHg 73%
    03:00 +3°C° 0 mm 5 m/s 751 mmHg 71%
    04:00 +3°C° 0 mm 5 m/s 750 mmHg 69%
    05:00 +3°C° 0 mm 6 m/s 750 mmHg 69%
    06:00 +3°C° 0 mm 6 m/s 749 mmHg 69%
    07:00 +3°C° 0 mm 6 m/s 749 mmHg 68%
    08:00 +4°C° 0 mm 6 m/s 749 mmHg 65%
    09:00 +5°C° 0 mm 6 m/s 748 mmHg 61%
    10:00 +6°C° 0 mm 7 m/s 748 mmHg 58%
    11:00 +8°C° 0 mm 6 m/s 747 mmHg 58%
    12:00 +9°C° 0 mm 5 m/s 747 mmHg 58%
    13:00 +10°C° 0 mm 5 m/s 746 mmHg 58%
    14:00 +11°C° 0 mm 4 m/s 745 mmHg 60%
    15:00 +11°C° 0 mm 4 m/s 745 mmHg 63%
    16:00 +11°C° 0 mm 3 m/s 744 mmHg 65%
    17:00 +11°C° 0 mm 4 m/s 744 mmHg 69%
    18:00 +10°C° 0 mm 4 m/s 744 mmHg 72%
    19:00 +8°C° 0 mm 4 m/s 744 mmHg 75%
    20:00 +8°C° 0 mm 5 m/s 743 mmHg 77%
    21:00 +8°C° 0 mm 5 m/s 743 mmHg 79%
    22:00 +8°C° 0 mm 5 m/s 742 mmHg 80%
    23:00 +8°C° 0 mm 5 m/s 742 mmHg 81%

    Mâine, 26 Februarie, Miercuri

    Timp Temperatura Precipitaţii Vânt Presiune Umiditate
    00:00 +7°C° 0 mm 4 m/s 741 mmHg 82%
    01:00 +7°C° 0 mm 4 m/s 741 mmHg 83%
    02:00 +7°C° 0.1 mm 4 m/s 740 mmHg 84%
    03:00 +7°C° 0.1 mm 4 m/s 739 mmHg 85%
    04:00 +7°C° 0.1 mm 5 m/s 739 mmHg 86%
    05:00 +7°C° 0.6 mm 5 m/s 738 mmHg 85%
    06:00 +7°C° 0.6 mm 6 m/s 738 mmHg 85%
    07:00 +7°C° 0.6 mm 6 m/s 737 mmHg 85%
    08:00 +7°C° 0.4 mm 6 m/s 737 mmHg 85%
    09:00 +7°C° 0.4 mm 5 m/s 737 mmHg 86%
    10:00 +7°C° 0.4 mm 5 m/s 736 mmHg 86%
    11:00 +8°C° 0.1 mm 5 m/s 736 mmHg 80%
    12:00 +8°C° 0.1 mm 5 m/s 736 mmHg 75%
    13:00 +9°C° 0.1 mm 5 m/s 736 mmHg 69%
    14:00 +10°C° 0 mm 4 m/s 736 mmHg 69%
    15:00 +9°C° 0 mm 3 m/s 736 mmHg 70%
    16:00 +9°C° 0 mm 2 m/s 736 mmHg 71%
    17:00 +8°C° 0 mm 2 m/s 736 mmHg 74%
    18:00 +7°C° 0 mm 2 m/s 737 mmHg 77%
    19:00 +6°C° 0 mm 2 m/s 737 mmHg 80%
    20:00 +5°C° 0 mm 3 m/s 737 mmHg 81%
    21:00 +4°C° 0 mm 4 m/s 738 mmHg 82%
    22:00 +3°C° 0 mm 5 m/s 738 mmHg 83%
    23:00 +4°C° 0 mm 4 m/s 738 mmHg 80%

    Poimâine, 27 Februarie, Joi

    Timp Temperatura Precipitaţii Vânt Presiune Umiditate
    00:00 +3°C° 0 mm 3 m/s 738 mmHg 77%
    01:00 +4°C° 0 mm 2 m/s 739 mmHg 75%
    02:00 +4°C° 0 mm 2 m/s 739 mmHg 76%
    03:00 +4°C° 0 mm 2 m/s 739 mmHg 77%
    04:00 +4°C° 0 mm 2 m/s 739 mmHg 78%
    05:00 +4°C° 0 mm 2 m/s 740 mmHg 78%
    06:00 +4°C° 0 mm 2 m/s 740 mmHg 79%
    07:00 +2°C° 0 mm 3 m/s 741 mmHg 79%
    08:00 +4°C° 0 mm 2 m/s 741 mmHg 74%
    09:00 +5°C° 0 mm 2 m/s 742 mmHg 68%
    10:00 +6°C° 0 mm 2 m/s 743 mmHg 62%
    11:00 +6°C° 0 mm 2 m/s 743 mmHg 58%
    12:00 +7°C° 0 mm 3 m/s 743 mmHg 54%
    13:00 +8°C° 0 mm 3 m/s 743 mmHg 50%
    14:00 +8°C° 0 mm 3 m/s 743 mmHg 50%
    15:00 +8°C° 0 mm 3 m/s 743 mmHg 50%
    16:00 +7°C° 0 mm 4 m/s 743 mmHg 50%
    17:00 +6°C° 0 mm 4 m/s 743 mmHg 55%
    18:00 +5°C° 0 mm 4 m/s 744 mmHg 61%
    19:00 +3°C° 0 mm 4 m/s 744 mmHg 66%
    20:00 +3°C° 0 mm 4 m/s 744 mmHg 67%
    21:00 +1°C° 0 mm 4 m/s 744 mmHg 68%
    22:00 +1°C° 0 mm 4 m/s 743 mmHg 70%
    23:00 +1°C° 0 mm 4 m/s 743 mmHg 68%

    28 Februarie, Vineri

    Timp Temperatura Precipitaţii Vânt Presiune Umiditate
    00:00 +1°C° 0 mm 5 m/s 742 mmHg 67%
    01:00 +1°C° 0 mm 6 m/s 742 mmHg 65%
    02:00 0°C° 0.6 mm 7 m/s 741 mmHg 75%
    03:00 -1°C° 0.6 mm 8 m/s 740 mmHg 85%
    04:00 -1°C° 0.6 mm 9 m/s 739 mmHg 94%
    05:00 -1°C° 0.7 mm 8 m/s 739 mmHg 91%
    06:00 0°C° 0.7 mm 8 m/s 739 mmHg 87%
    07:00 +2°C° 0.7 mm 7 m/s 738 mmHg 84%
    08:00 +2°C° 0.1 mm 7 m/s 739 mmHg 80%
    09:00 +3°C° 0.1 mm 6 m/s 739 mmHg 76%
    10:00 +3°C° 0.1 mm 6 m/s 740 mmHg 73%
    11:00 +4°C° 0.2 mm 6 m/s 741 mmHg 67%
    12:00 +5°C° 0.2 mm 6 m/s 742 mmHg 61%
    13:00 +5°C° 0.2 mm 6 m/s 743 mmHg 56%
    14:00 +6°C° 0.3 mm 5 m/s 744 mmHg 56%
    15:00 +6°C° 0.3 mm 5 m/s 745 mmHg 57%
    16:00 +5°C° 0.3 mm 4 m/s 746 mmHg 57%
    17:00 +5°C° 0.1 mm 4 m/s 747 mmHg 60%
    18:00 +4°C° 0.1 mm 3 m/s 748 mmHg 64%
    19:00 +3°C° 0.1 mm 3 m/s 749 mmHg 67%
    20:00 +3°C° 0 mm 2 m/s 749 mmHg 69%
    21:00 +3°C° 0 mm 2 m/s 750 mmHg 71%
    22:00 +2°C° 0 mm 2 m/s 751 mmHg 73%
    23:00 +2°C° 0 mm 2 m/s 751 mmHg 75%

    29 Februarie, Sâmbătă

    Timp Temperatura Precipitaţii Vânt Presiune Umiditate
    00:00 +1°C° 0 mm 2 m/s 751 mmHg 77%
    01:00 +1°C° 0 mm 2 m/s 751 mmHg 79%
    02:00 +1°C° 0 mm 2 m/s 751 mmHg 80%
    03:00 -1°C° 0 mm 2 m/s 751 mmHg 82%
    04:00 -1°C° 0 mm 2 m/s 751 mmHg 84%
    05:00 -1°C° 0 mm 2 m/s 751 mmHg 83%
    06:00 -1°C° 0 mm 3 m/s 751 mmHg 83%
    07:00 -1°C° 0 mm 3 m/s 751 mmHg 83%
    08:00 +1°C° 0 mm 3 m/s 751 mmHg 76%
    09:00 +1°C° 0 mm 4 m/s 751 mmHg 69%
    10:00 +4°C° 0 mm 4 m/s 751 mmHg 62%
    11:00 +5°C° 0 mm 5 m/s 750 mmHg 58%
    12:00 +5°C° 0 mm 5 m/s 750 mmHg 54%
    13:00 +5°C° 0 mm 6 m/s 749 mmHg 50%
    14:00 +5°C° 0 mm 6 m/s 749 mmHg 51%
    15:00 +6°C° 0 mm 5 m/s 748 mmHg 52%
    16:00 +6°C° 0 mm 5 m/s 748 mmHg 52%
    17:00 +6°C° 0 mm 5 m/s 748 mmHg 55%
    18:00 +5°C° 0 mm 5 m/s 748 mmHg 58%
    19:00 +3°C° 0 mm 5 m/s 747 mmHg 61%
    20:00 +3°C° 0 mm 5 m/s 747 mmHg 62%
    21:00 +3°C° 0 mm 6 m/s 747 mmHg 62%
    22:00 +4°C° 0 mm 6 m/s 747 mmHg 62%
    23:00 +3°C° 0 mm 5 m/s 746 mmHg 64%

    1 Martie, Duminică

    Timp Temperatura Precipitaţii Vânt Presiune Umiditate
    00:00 +4°C° 0 mm 4 m/s 746 mmHg 67%
    01:00 +4°C° 0 mm 4 m/s 746 mmHg 69%
    02:00 +4°C° 0.1 mm 4 m/s 745 mmHg 72%
    03:00 +4°C° 0.1 mm 4 m/s 745 mmHg 74%
    04:00 +4°C° 0.1 mm 4 m/s 745 mmHg 76%
    05:00 +4°C° 0.4 mm 4 m/s 745 mmHg 81%
    06:00 +4°C° 0.4 mm 4 m/s 745 mmHg 86%
    07:00 +4°C° 0.4 mm 4 m/s 745 mmHg 90%
    08:00 +4°C° 0.1 mm 4 m/s 745 mmHg 89%
    09:00 +5°C° 0.1 mm 3 m/s 745 mmHg 89%
    10:00 +5°C° 0.1 mm 3 m/s 746 mmHg 88%
    11:00 +5°C° 0 mm 3 m/s 746 mmHg 85%
    12:00 +5°C° 0 mm 3 m/s 746 mmHg 83%
    13:00 +5°C° 0 mm 4 m/s 746 mmHg 80%
    14:00 +7°C° 0 mm 3 m/s 746 mmHg 79%
    15:00 +7°C° 0 mm 2 m/s 746 mmHg 78%
    16:00 +7°C° 0 mm 0 m/s 746 mmHg 77%
    17:00 +7°C° 0 mm 1 m/s 746 mmHg 80%
    18:00 +7°C° 0 mm 1 m/s 746 mmHg 83%
    19:00 +5°C° 0 mm 2 m/s 746 mmHg 86%
    20:00 +5°C° 0 mm 2 m/s 747 mmHg 85%
    21:00 +5°C° 0 mm 2 m/s 747 mmHg 84%
    22:00 +4°C° 0 mm 2 m/s 748 mmHg 83%
    23:00 +4°C° 0 mm 2 m/s 748 mmHg 83%
    Arată mai mult